TimeCST,TemperatureF,Dew PointF,Humidity,Sea Level PressureIn,VisibilityMPH,Wind Direction,Wind SpeedMPH,Gust SpeedMPH,PrecipitationIn,Events,Conditions,WindDirDegrees,DateUTC
1:53 AM,44.1,35.1,71,30.32,10.0,NNE,4.6,-,N/A,,Clear,20,2012-11-17 07:53:00
2:53 AM,42.1,35.1,76,30.32,10.0,NNE,8.1,-,N/A,,Clear,20,2012-11-17 08:53:00
3:53 AM,42.1,36.0,79,30.30,10.0,NNE,6.9,-,N/A,,Clear,30,2012-11-17 09:53:00
4:53 AM,42.1,36.0,79,30.30,10.0,NNE,5.8,-,N/A,,Clear,30,2012-11-17 10:53:00
5:53 AM,42.1,35.1,76,30.32,10.0,North,5.8,-,N/A,,Clear,360,2012-11-17 11:53:00
6:53 AM,41.0,35.6,81,30.34,8.0,NNE,5.8,-,N/A,,Clear,20,2012-11-17 12:53:00
7:53 AM,48.9,41.0,74,30.35,9.0,NE,4.6,-,N/A,,Clear,40,2012-11-17 13:53:00
8:53 AM,59.0,46.0,62,30.35,10.0,ENE,12.7,-,N/A,,Clear,60,2012-11-17 14:53:00
9:53 AM,66.0,46.0,48,30.36,10.0,ENE,11.5,-,N/A,,Clear,60,2012-11-17 15:53:00
10:53 AM,69.1,42.1,38,30.37,10.0,North,6.9,-,N/A,,Clear,360,2012-11-17 16:53:00
11:53 AM,71.1,41.0,34,30.35,10.0,Variable,3.5,-,N/A,,Clear,0,2012-11-17 17:53:00
12:53 PM,72.0,39.9,31,30.31,10.0,Variable,3.5,-,N/A,,Clear,0,2012-11-17 18:53:00
1:53 PM,73.9,37.0,26,30.28,10.0,NE,5.8,-,N/A,,Clear,40,2012-11-17 19:53:00
2:53 PM,72.0,42.1,34,30.27,10.0,Variable,3.5,-,N/A,,Clear,0,2012-11-17 20:53:00
3:53 PM,71.1,45.0,39,30.27,10.0,ESE,12.7,-,N/A,,Clear,120,2012-11-17 21:53:00
5:53 PM,61.0,48.9,64,30.28,10.0,East,8.1,-,N/A,,Clear,100,2012-11-17 23:53:00
6:53 PM,57.0,48.9,74,30.30,10.0,ESE,6.9,-,N/A,,Clear,110,2012-11-18 00:53:00
7:53 PM,55.9,48.9,77,30.30,10.0,East,4.6,-,N/A,,Clear,90,2012-11-18 01:53:00
8:53 PM,54.0,45.0,72,30.30,10.0,East,6.9,-,N/A,,Clear,90,2012-11-18 02:53:00
10:53 PM,48.9,42.1,77,30.30,10.0,NE,3.5,-,N/A,,Clear,50,2012-11-18 04:53:00
11:53 PM,46.9,39.9,77,30.29,10.0,NE,5.8,-,N/A,,Clear,50,2012-11-18 05:53:00